This is the latest recevied weather packets stored in our database for station/object KO4APQ. If no packets are shown the sender has not sent any weather packets the latest 10 day(s).
| Time | Temp. | Humidity | Pressure | Rain* | Wind** | Luminosity | Snow |
|---|---|---|---|---|---|---|---|
| 1778130063 | 17.78° C | 97% | 1014 hPa | 8.89 mm | - | 0 W/m² | - |
| 1778129759 | 17.78° C | 96% | 1014.4 hPa | 4.32 mm | - | 0 W/m² | - |
| 1778129457 | 17.78° C | 96% | 1014.6 hPa | 1.78 mm | - | 0 W/m² | - |
| 1778129153 | 17.78° C | 96% | 1015 hPa | 7.87 mm | - | 0 W/m² | - |
| 1778128850 | 17.78° C | 96% | 1014.5 hPa | 13.72 mm | - | 0 W/m² | - |
| 1778128545 | 17.78° C | 96% | 1014.2 hPa | 6.1 mm | - | 0 W/m² | - |
| 1778128243 | 17.78° C | 96% | 1014.2 hPa | 0 mm | - | 0 W/m² | - |
| 1778127939 | 17.78° C | 96% | 1013.6 hPa | 1.27 mm | - | 0 W/m² | - |
| 1778127635 | 17.78° C | 96% | 1013.8 hPa | 1.27 mm | - | 0 W/m² | - |
| 1778127332 | 17.78° C | 96% | 1013.5 hPa | 0 mm | - | 0 W/m² | - |
| 1778127029 | 17.78° C | 96% | 1013.4 hPa | 3.05 mm | - | 0 W/m² | - |
| 1778126725 | 17.78° C | 96% | 1013.7 hPa | 4.83 mm | - | 0 W/m² | - |
| 1778126421 | 17.78° C | 96% | 1013.9 hPa | 1.78 mm | - | 0 W/m² | - |
| 1778126118 | 17.78° C | 96% | 1014.1 hPa | 0 mm | - | 0 W/m² | - |
| 1778125814 | 17.78° C | 96% | 1014.2 hPa | 0 mm | - | 0 W/m² | - |
| 1778125511 | 17.78° C | 96% | 1013.8 hPa | 0 mm | - | 0 W/m² | - |
| 1778125209 | 17.78° C | 96% | 1013.5 hPa | 0 mm | - | 0 W/m² | - |
| 1778124907 | 17.78° C | 96% | 1013.8 hPa | 3.05 mm | - | 0 W/m² | - |
| 1778124604 | 17.78° C | 96% | 1013.8 hPa | 3.05 mm | - | 0 W/m² | - |
| 1778124301 | 17.78° C | 96% | 1013.9 hPa | 0 mm | - | 0 W/m² | - |
| 1778123996 | 17.78° C | 96% | 1013.7 hPa | 0 mm | - | 0 W/m² | - |
| 1778123693 | 17.78° C | 96% | 1013.3 hPa | 0 mm | - | 0 W/m² | - |
| 1778123390 | 17.78° C | 96% | 1013.3 hPa | 0 mm | - | 0 W/m² | - |
| 1778123087 | 17.78° C | 96% | 1013.2 hPa | 0 mm | - | 0 W/m² | - |
| 1778122784 | 17.78° C | 96% | 1013.3 hPa | 0 mm | - | 0 W/m² | - |
* Rain latest hour (hover to see other rain measurements)
** Current wind speed in m/s (hover to see current wind gust speed)